James Reserve, California Weather observations

Data are for 10 minute period ending at time listed.
 Day   Time   Solar   Ave.   Ave.  Ave.  Vector  Max.   Baro.   Total    
  of    of     Rad.   Air    Rel.  Wind   Wind   Wind  Press.  Precip.   
Year   Day            Temp.  Hum.  Speed  Dir.   Gust                    
2016   (PST)  Kw/m2    F      %     mph   deg.    mph    mb.     in.     
-------------------------------------------------------------------------
 272   17:00   0.02   60.9    63    0.2    39     0.3   839.0    0.00 
 272   17:10   0.01   60.3    67    0.2    69     0.3   839.0    0.00 
 272   17:20   0.01   59.8    68    0.1   350     0.3   839.0    0.00 
 272   17:30   0.01   59.2    71    0.1    23     0.3   840.0    0.00 
 272   17:40   0.00   58.7    72    0.2     6     0.3   840.0    0.00 
 272   17:50   0.00   58.1    71    0.2   355     0.3   840.0    0.00 
 272   18:00   0.00   57.3    69    0.2   356     0.4   840.0    0.00 
 272   18:10   0.00   56.5    69    0.2   330     0.3   840.0    0.00 
 272   18:20   0.00   55.5    68    0.3    10     0.5   840.0    0.00 
 272   18:30   0.00   54.8    68    0.3     1     0.5   840.0    0.00 
 272   18:40   0.00   54.1    68    0.3     1     0.4   840.0    0.00 
 272   18:50   0.00   54.0    69    0.2    24     0.4   840.0    0.00 
 272   19:00   0.00   54.2    68    0.2    26     0.4   840.0    0.00 
 272   19:10   0.00   54.4    69    0.2    17     0.4   841.0    0.00 
 272   19:20   0.00   54.4    68    0.3    14     0.8   841.0    0.00 
 272   19:30   0.00   54.2    68    0.3    31     0.5   841.0    0.00 
 272   19:40   0.00   53.6    70    0.2    13     0.5   841.0    0.00 
 272   19:50   0.00   53.1    72    0.2     4     0.4   841.0    0.00 
 272   20:00   0.00   52.7    74    0.2    24     0.4   841.0    0.00 
 272   20:10   0.00   52.3    76    0.2    18     0.5   841.0    0.00 
 272   20:20   0.00   52.0    77    0.2     4     0.5   841.0    0.00 
 272   20:30   0.00   51.8    78    0.2    24     0.5   841.0    0.00 
 272   20:40   0.00   51.5    79    0.1     7     0.3   841.0    0.00 
 272   20:50   0.00   51.2    79    0.2     4     0.4   841.0    0.00 
 272   21:00   0.00   50.9    80    0.2     4     0.4   841.0    0.00 
 272   21:10   0.00   50.6    80    0.2     2     0.3   841.0    0.00 
 272   21:20   0.00   50.4    81    0.2     6     0.5   841.0    0.00 
 272   21:30   0.00   50.2    81    0.3     5     0.4   841.0    0.00 
 272   21:40   0.00   50.0    82    0.2    24     0.4   841.0    0.00 
 272   21:50   0.00   49.9    82    0.2    14     0.4   841.0    0.00 
 272   22:00   0.00   49.8    83    0.2    14     0.4   841.0    0.00 
 272   22:10   0.00   49.6    83    0.2    16     0.4   841.0    0.00 
 272   22:20   0.00   49.5    83    0.2     8     0.5   841.0    0.00 
 272   22:30   0.00   49.4    84    0.2    16     0.3   841.0    0.00 
 272   22:40   0.00   49.2    84    0.2    18     0.4   841.0    0.00 
 272   22:50   0.00   49.1    84    0.2    15     0.3   841.0    0.00 
 272   23:00   0.00   48.9    84    0.2    20     0.3   841.0    0.00 
 272   23:10   0.00   48.8    84    0.2    20     0.4   841.0    0.00 
 272   23:20   0.00   48.6    84    0.2    13     0.4   841.0    0.00 
 272   23:30   0.00   48.5    84    0.2    15     0.4   841.0    0.00 
 272   23:40   0.00   48.3    84    0.2    23     0.3   841.0    0.00 
 272   23:50   0.00   48.2    84    0.2    24     0.3   841.0    0.00 
 273    0:00   0.00   48.3    84    0.2    34     0.4   841.0    0.00 
 273    0:10   0.00   48.2    84    0.2    23     0.4   841.0    0.00 
 273    0:20   0.00   48.2    85    0.3    27     0.4   841.0    0.00 
 273    0:30   0.00   48.4    84    0.3    29     0.4   841.0    0.00 
 273    0:40   0.00   48.3    85    0.2    21     0.4   841.0    0.00 
 273    0:50   0.00   48.3    85    0.2    10     0.3   841.0    0.00 
 273    1:00   0.00   48.1    86    0.1    10     0.2   841.0    0.00 
 273    1:10   0.00   47.9    86    0.2    34     0.3   841.0    0.00 
 273    1:20   0.00   47.8    86    0.2    26     0.4   841.0    0.00 
 273    1:30   0.00   47.8    86    0.2    24     0.3   841.0    0.00 
 273    1:40   0.00   47.7    86    0.2    17     0.4   841.0    0.00 
 273    1:50   0.00   47.5    86    0.2    19     0.4   841.0    0.00 
 273    2:00   0.00   47.4    86    0.2    30     0.3   841.0    0.00 
 273    2:10   0.00   47.3    86    0.2    29     0.4   841.0    0.00 
 273    2:20   0.00   47.3    85    0.2    12     0.3   841.0    0.00 
 273    2:30   0.00   47.2    86    0.2    19     0.4   841.0    0.00 
 273    2:40   0.00   47.2    86    0.3    23     0.6   841.0    0.00 
 273    2:50   0.00   47.2    85    0.2    26     0.5   841.0    0.00 
 273    3:00   0.00   47.2    86    0.3    14     0.5   841.0    0.00 
 273    3:10   0.00   47.1    86    0.2    19     0.3   841.0    0.00 
 273    3:20   0.00   47.0    86    0.2    18     0.4   841.0    0.00 
 273    3:30   0.00   47.0    86    0.3    27     0.4   841.0    0.00 
 273    3:40   0.00   47.0    86    0.3    35     0.5   841.0    0.00 
 273    3:50   0.00   47.1    86    0.3    24     0.5   842.0    0.00 
 273    4:00   0.00   47.1    86    0.3    36     0.6   842.0    0.00 
 273    4:10   0.00   47.0    87    0.3    29     0.5   842.0    0.00 
 273    4:20   0.00   47.1    87    0.3    34     0.4   842.0    0.00 
 273    4:30   0.00   47.1    87    0.3    28     0.6   842.0    0.00 
 273    4:40   0.00   47.0    87    0.3    36     0.5   842.0    0.00 
 273    4:50   0.00   47.0    87    0.4    34     0.6   842.0    0.00 
 273    5:00   0.00   47.2    87    0.3    27     0.8   842.0    0.00 
 273    5:10   0.00   47.0    87    0.3    20     0.7   842.0    0.00 
 273    5:20   0.00   47.0    88    0.2    23     0.5   842.0    0.00 
 273    5:30   0.00   47.0    88    0.3    25     0.4   842.0    0.00 
 273    5:40   0.00   47.0    88    0.3    20     0.5   842.0    0.00 
 273    5:50   0.00   47.0    88    0.3    27     0.5   842.0    0.00 
 273    6:00   0.00   47.0    88    0.3    35     0.5   842.0    0.00 
 273    6:10   0.01   47.0    88    0.2    35     0.5   842.0    0.00 
 273    6:20   0.01   47.1    88    0.3    42     0.4   842.0    0.00 
 273    6:30   0.01   47.2    88    0.2    33     0.4   843.0    0.00 
 273    6:40   0.01   47.3    88    0.3    43     0.4   843.0    0.00 
 273    6:50   0.02   47.6    88    0.3    43     0.5   843.0    0.00 
 273    7:00   0.02   48.0    88    0.5    52     0.7   843.0    0.00 
 273    7:10   0.02   48.5    87    0.6    52     0.7   843.0    0.00 
 273    7:20   0.03   49.0    86    0.6    52     0.7   843.0    0.00 
 273    7:30   0.03   49.9    85    0.7    54     0.8   843.0    0.00 
 273    7:40   0.03   51.0    83    0.7    53     0.8   843.0    0.00 
 273    7:50   0.04   51.7    81    0.6    53     0.8   843.0    0.00 
 273    8:00   0.04   52.5    80    0.6    56     0.9   843.0    0.00 
 273    8:10   0.03   53.4    78    0.6    55     0.8   843.0    0.00 
 273    8:20   0.05   54.2    77    0.5    56     0.8   843.0    0.00 
 273    8:30   0.04   55.3    76    0.5    61     1.2   843.0    0.00 
 273    8:40   0.04   56.9    73    0.3    72     0.8   843.0    0.00 
 273    8:50   0.04   59.5    67    0.3   118     0.8   843.0    0.00 
 273    9:00   0.04   62.7    53    0.5   110     0.9   843.0    0.00 
 273    9:10   0.04   64.8    46    0.6   176     2.8   843.0    0.00 
 273    9:20   0.04   66.2    42    0.8   186     3.5   843.0    0.00 
 273    9:30   0.04   66.9    40    0.9   192     2.5   843.0    0.00 
 273    9:40   0.04   67.2    39    0.9   174     2.5   843.0    0.00 
 273    9:50   0.05   68.0    38    1.0   220     3.9   843.0    0.00 
 273   10:00   0.06   68.3    35    0.7   184     1.9   844.0    0.00 
 273   10:10   0.07   69.2    37    0.9   221     2.0   843.0    0.00 
 273   10:20   0.07   69.7    36    1.0   154     3.0   843.0    0.00 
 273   10:30   0.10   69.1    34    1.0    64     3.1   843.0    0.00 
 273   10:40   0.12   70.7    34    1.0   207     2.3   843.0    0.00 
 273   10:50   0.50   71.7    32    1.3   215     4.2   843.0    0.00 
 273   11:00   0.12   70.4    34    0.8   121     2.8   843.0    0.00 
 273   11:10   0.77   69.1    37    0.7   114     2.1   843.0    0.00 
 273   11:20   0.84   72.1    35    0.9   192     2.6   843.0    0.00 
 273   11:30   0.36   70.5    37    0.9   205     2.2   843.0    0.00 
 273   11:40   0.99   71.7    35    0.9    52     2.0   843.0    0.00 
 273   11:50   0.87   72.4    33    0.8   138     2.4   843.0    0.00 
 273   12:00   0.97   74.0    32    1.0   205     2.3   843.0    0.00 
 273   12:10   0.95   72.6    32    1.0   123     2.4   843.0    0.00 
 273   12:20   0.94   73.0    31    1.1   209     2.7   843.0    0.00 
 273   12:30   0.93   73.7    30    1.0   168     2.6   843.0    0.00 
 273   12:40   0.65   72.9    31    0.7   124     2.0   842.0    0.00 
 273   12:50   0.11   71.5    34    0.5   161     1.2   842.0    0.00 
 273   13:00   0.41   70.1    36    0.7   121     1.8   842.0    0.00 
 273   13:10   0.69   71.8    32    1.0   127     2.4   842.0    0.00 
 273   13:20   0.68   73.5    31    0.8    96     2.2   842.0    0.00 
 273   13:30   0.56   73.2    32    0.8   174     2.7   842.0    0.00 
 273   13:40   0.15   70.6    34    1.0   104     2.2   842.0    0.00 
 273   13:50   0.39   70.6    34    0.8   158     2.3   842.0    0.00 
 273   14:00   0.33   70.9    34    0.8   166     2.1   842.0    0.00 
 273   14:10   0.69   71.5    32    0.9   151     3.1   842.0    0.00 
 273   14:20   0.39   72.7    32    0.9   135     2.9   842.0    0.00 
 273   14:30   0.70   72.2    33    0.9   171     2.7   842.0    0.00 
 273   14:40   0.44   72.6    31    0.8    94     2.5   842.0    0.00 
 273   14:50   0.15   72.2    32    0.9   269     2.6   842.0    0.00 
 273   15:00   0.30   71.9    32    0.9    66     3.4   842.0    0.00 
 273   15:10   0.44   71.6    35    0.8   150     2.2   842.0    0.00 
 273   15:20   0.37   71.5    36    0.9   150     2.6   842.0    0.00 
 273   15:30   0.05   70.9    37    0.9   133     3.2   842.0    0.00 
 273   15:40   0.16   70.7    37    0.7   156     1.6   842.0    0.00 
 273   15:50   0.20   70.2    39    0.8   143     2.4   842.0    0.00 
 273   16:00   0.04   69.8    40    0.7   116     1.7   842.0    0.00 
 273   16:10   0.04   69.0    42    0.7   127     1.7   842.0    0.00 
 273   16:20   0.04   67.8    46    0.4    95     1.1   842.0    0.00 
 273   16:30   0.03   67.3    45    0.5    86     2.1   842.0    0.00 
 273   16:40   0.03   67.0    46    0.5   111     1.6   842.0    0.00 
 273   16:50   0.02   66.3    48    0.5   118     1.4   842.0    0.00 

Return to James Reserve graphs page.


Western Regional Climate Center,wrcc@dri.edu